Location: Ellingshausen
(50.5460°N, 10.4723°E)
Time: 13:46:04
(UTC+00:00)

Cosmos 676 Rocket - Pass Details

Date: 13 April 2026
Orbit: 750 x 779 km, 74.0° (Epoch: 19 May)

Event Time Altitude Azimuth Distance (km) Brightness Sun altitude
Rises 23:31:21 0° 336° (NNW) 3,271 8.2 -30.1°
Reaches altitude 10° 23:33:46 10° 339° (NNW) 2,337 7.2 -30.0°
Enters shadow 23:38:20 61° 12° (NNE) 875 4.4 -30.0°
